This is the latest recevied weather packets stored in our database for station/object KE5QKR. If no packets are shown the sender has not sent any weather packets the latest 10 day(s).
| Time | Temp. | Humidity | Pressure | Rain* | Wind** | Luminosity | Snow |
|---|---|---|---|---|---|---|---|
| 1778188710 | 25° C | 83% | 1011.4 hPa | 0 mm | - | 185 W/m² | - |
| 1778188407 | 25.56° C | 82% | 1011.2 hPa | 0 mm | - | 224 W/m² | - |
| 1778188104 | 25° C | 82% | 1011.4 hPa | 0 mm | - | 253 W/m² | - |
| 1778187801 | 25° C | 82% | 1011.2 hPa | 0 mm | - | 221 W/m² | - |
| 1778187497 | 25.56° C | 83% | 1011.2 hPa | 0 mm | - | 219 W/m² | - |
| 1778187194 | 25.56° C | 83% | 1011.5 hPa | 0 mm | - | 216 W/m² | - |
| 1778186890 | 25° C | 82% | 1011.6 hPa | 0 mm | - | 258 W/m² | - |
| 1778186588 | 25° C | 83% | 1011.3 hPa | 0 mm | - | 261 W/m² | - |
| 1778186286 | 25° C | 85% | 1011.4 hPa | 0 mm | - | 174 W/m² | - |
| 1778185983 | 25.56° C | 82% | 1011.5 hPa | 0 mm | - | 182 W/m² | - |
| 1778185679 | 25° C | 82% | 1011.4 hPa | 0 mm | - | 354 W/m² | - |
| 1778185375 | 25° C | 82% | 1011.5 hPa | 0 mm | - | 270 W/m² | - |
| 1778185070 | 25° C | 83% | 1011.4 hPa | 0 mm | - | 189 W/m² | - |
| 1778184767 | 25.56° C | 82% | 1011.5 hPa | 0 mm | - | 273 W/m² | - |
| 1778184463 | 25.56° C | 82% | 1011.5 hPa | 0 mm | - | 246 W/m² | - |
| 1778184159 | 25.56° C | 83% | 1011.7 hPa | 0 mm | - | 233 W/m² | - |
| 1778183856 | 25.56° C | 82% | 1011.8 hPa | 0 mm | - | 226 W/m² | - |
| 1778183553 | 25.56° C | 82% | 1011.7 hPa | 0 mm | - | 273 W/m² | - |
| 1778183250 | 25.56° C | 82% | 1011.8 hPa | 0 mm | - | 325 W/m² | - |
| 1778182946 | 25.56° C | 83% | 1011.9 hPa | 0 mm | - | 376 W/m² | - |
| 1778182643 | 25.56° C | 82% | 1011.7 hPa | 0 mm | - | 279 W/m² | - |
| 1778182340 | 25.56° C | 82% | 1011.6 hPa | 0 mm | - | 264 W/m² | - |
| 1778182036 | 25.56° C | 81% | 1011.6 hPa | 0 mm | - | 269 W/m² | - |
| 1778181733 | 25.56° C | 83% | 1011.9 hPa | 0 mm | - | 267 W/m² | - |
| 1778181428 | 25.56° C | 83% | 1011.8 hPa | 0 mm | - | 221 W/m² | - |
* Rain latest hour (hover to see other rain measurements)
** Current wind speed in m/s (hover to see current wind gust speed)